Location: Clyde
(45.1830°S, 169.3170°E)
Time: 07:39:05
(UTC+12:00)

USA 234 - Pass Details

Date: 14 May 2021
Orbit: 1102 x 1105 km, 123.0° (Epoch: 18 April)

Event Time Altitude Azimuth Distance (km) Brightness Sun altitude
Exits shadow 19:50:02 32° 148° (SSE) 1,809 4.1 -25.5°
Maximum altitude 19:52:55 54° 207° (SSW) 1,335 3.7 -26.0°
Drops below altitude 10° 19:59:17 10° 282° (WNW) 2,979 6.5 -27.2°
Sets 20:01:49 0° 286° (WNW) 3,933 7.3 -27.6°
